TimePDT,TemperatureF,Dew PointF,Humidity,Sea Level PressureIn,VisibilityMPH,Wind Direction,Wind SpeedMPH,Gust SpeedMPH,PrecipitationIn,Events,Conditions,WindDirDegrees,DateUTC
12:58 AM,56.8,54.3,91,29.84,10.0,SSE,13.8,-,0.01,,Overcast,160,2012-10-19 07:58:00
1:48 AM,57.2,53.6,88,29.82,10.0,SSE,12.7,-,N/A,,Overcast,160,2012-10-19 08:48:00
1:53 AM,57.2,53.6,88,29.83,10.0,South,15.0,-,N/A,,Overcast,170,2012-10-19 08:53:00
1:58 AM,56.8,53.8,89,29.84,10.0,SSE,11.5,-,N/A,,Overcast,160,2012-10-19 08:58:00
2:13 AM,57.2,53.6,88,29.83,10.0,South,12.7,-,N/A,,Overcast,170,2012-10-19 09:13:00
2:18 AM,57.2,53.6,88,29.83,10.0,South,12.7,-,N/A,,Overcast,170,2012-10-19 09:18:00
2:23 AM,57.2,53.6,88,29.83,10.0,South,11.5,-,N/A,,Overcast,170,2012-10-19 09:23:00
2:48 AM,57.2,53.6,88,29.83,10.0,South,13.8,-,N/A,,Overcast,170,2012-10-19 09:48:00
2:58 AM,56.7,54.1,91,29.83,10.0,South,13.8,-,N/A,,Overcast,170,2012-10-19 09:58:00
3:08 AM,57.2,53.6,88,29.82,10.0,South,12.7,20.7,N/A,,Overcast,170,2012-10-19 10:08:00
3:18 AM,57.2,53.6,88,29.82,10.0,SSE,12.7,-,N/A,,Overcast,150,2012-10-19 10:18:00
3:43 AM,57.2,53.6,88,29.82,10.0,SSE,12.7,-,N/A,,Overcast,160,2012-10-19 10:43:00
3:53 AM,57.2,53.6,88,29.81,10.0,SSE,15.0,21.9,N/A,,Overcast,160,2012-10-19 10:53:00
3:58 AM,56.5,54.0,91,29.82,10.0,SSE,12.7,21.9,N/A,,Overcast,160,2012-10-19 10:58:00
4:23 AM,57.2,53.6,88,29.81,10.0,SSE,13.8,21.9,N/A,,Overcast,160,2012-10-19 11:23:00
4:43 AM,57.2,53.6,88,29.80,10.0,SSE,12.7,-,N/A,,Overcast,160,2012-10-19 11:43:00
4:53 AM,57.2,53.6,88,29.80,10.0,SSE,12.7,-,N/A,,Overcast,160,2012-10-19 11:53:00
4:58 AM,56.8,53.4,88,29.81,10.0,SSE,11.5,-,N/A,,Overcast,160,2012-10-19 11:58:00
5:03 AM,57.2,53.6,88,29.80,10.0,South,11.5,-,N/A,,Overcast,170,2012-10-19 12:03:00
5:08 AM,57.2,53.6,88,29.80,10.0,South,10.4,-,N/A,,Overcast,170,2012-10-19 12:08:00
5:38 AM,57.2,53.6,88,29.81,10.0,SSE,8.1,-,N/A,,Overcast,150,2012-10-19 12:38:00
5:53 AM,57.2,53.6,88,29.81,10.0,SSE,8.1,-,N/A,,Overcast,160,2012-10-19 12:53:00
5:58 AM,57.2,53.4,87,29.81,10.0,SSE,10.4,-,N/A,,Overcast,150,2012-10-19 12:58:00
6:28 AM,57.2,53.6,88,29.80,10.0,SSE,9.2,-,N/A,,Overcast,160,2012-10-19 13:28:00
6:58 AM,58.1,53.8,86,29.81,10.0,SSE,10.4,-,N/A,,Overcast,160,2012-10-19 13:58:00
7:44 AM,57.2,53.6,88,29.80,8.0,South,11.5,-,N/A,,Overcast,170,2012-10-19 14:44:00
7:58 AM,57.2,54.5,91,29.81,9.0,South,9.2,-,N/A,Rain,Light Rain,170,2012-10-19 14:58:00
7:59 AM,57.2,55.4,94,29.80,8.0,SSE,9.2,-,N/A,,Overcast,160,2012-10-19 14:59:00
8:01 AM,57.2,55.4,94,29.80,8.0,SSE,10.4,-,N/A,,Light Drizzle,160,2012-10-19 15:01:00
8:06 AM,57.2,55.4,94,29.80,8.0,SSE,10.4,-,N/A,,Light Drizzle,160,2012-10-19 15:06:00
8:08 AM,57.2,55.4,94,29.80,3.0,SSE,11.5,-,N/A,Rain,Light Rain,160,2012-10-19 15:08:00
8:21 AM,57.2,55.4,94,29.81,3.0,South,10.4,-,N/A,Rain,Light Rain,170,2012-10-19 15:21:00
8:51 AM,57.2,55.4,94,29.81,3.0,South,10.4,-,N/A,Rain,Light Rain,170,2012-10-19 15:51:00
8:58 AM,56.3,54.9,95,29.82,3.0,South,8.1,-,0.01,Rain,Light Rain,180,2012-10-19 15:58:00
9:13 AM,55.4,55.4,100,29.82,3.0,SSE,13.8,20.7,N/A,Rain,Light Rain,160,2012-10-19 16:13:00
9:19 AM,55.4,55.4,100,29.82,4.0,SSE,15.0,20.7,N/A,Rain,Light Rain,160,2012-10-19 16:19:00
9:21 AM,55.4,55.4,100,29.82,6.0,SSE,11.5,20.7,N/A,,Overcast,160,2012-10-19 16:21:00
9:26 AM,55.4,55.4,100,29.82,8.0,South,11.5,-,N/A,Rain,Light Rain,170,2012-10-19 16:26:00
9:27 AM,55.4,55.4,100,29.82,8.0,South,11.5,-,N/A,,Overcast,170,2012-10-19 16:27:00
9:37 AM,55.4,53.6,94,29.83,10.0,South,9.2,-,N/A,Rain,Light Rain,170,2012-10-19 16:37:00
9:39 AM,55.4,53.6,94,29.83,10.0,South,9.2,-,N/A,,Overcast,170,2012-10-19 16:39:00
9:44 AM,55.4,53.6,94,29.83,3.0,South,10.4,-,N/A,,Overcast,170,2012-10-19 16:44:00
9:58 AM,55.9,54.3,94,29.84,5.0,South,9.2,-,0.01,,Overcast,180,2012-10-19 16:58:00
10:16 AM,55.4,53.6,94,29.83,10.0,South,13.8,19.6,N/A,Rain,Light Rain,190,2012-10-19 17:16:00
10:17 AM,55.4,53.6,94,29.83,10.0,South,12.7,19.6,N/A,,Overcast,190,2012-10-19 17:17:00
10:58 AM,55.6,53.1,91,29.86,10.0,South,10.4,-,N/A,,Overcast,170,2012-10-19 17:58:00
11:13 AM,55.4,53.6,94,29.84,10.0,South,8.1,-,N/A,,Overcast,180,2012-10-19 18:13:00
11:18 AM,55.4,53.6,94,29.84,10.0,South,8.1,-,N/A,,Overcast,170,2012-10-19 18:18:00
11:28 AM,55.4,53.6,94,29.84,10.0,South,9.2,-,N/A,,Overcast,180,2012-10-19 18:28:00
11:33 AM,55.4,53.6,94,29.84,10.0,South,9.2,-,N/A,,Overcast,190,2012-10-19 18:33:00
11:58 AM,56.1,52.2,87,29.86,10.0,SSW,8.1,-,N/A,,Overcast,210,2012-10-19 18:58:00
12:03 PM,55.4,51.8,88,29.84,10.0,SSW,10.4,-,N/A,,Overcast,210,2012-10-19 19:03:00
12:08 PM,55.4,51.8,88,29.84,10.0,SSW,9.2,-,N/A,,Overcast,200,2012-10-19 19:08:00
12:43 PM,55.4,51.8,88,29.83,10.0,SSW,4.6,-,N/A,,Overcast,210,2012-10-19 19:43:00
12:58 PM,56.1,51.8,85,29.84,10.0,South,13.8,20.7,N/A,,Mostly Cloudy,190,2012-10-19 19:58:00
1:03 PM,57.2,50.0,77,29.83,10.0,South,10.4,20.7,N/A,,Overcast,180,2012-10-19 20:03:00
1:08 PM,57.2,51.8,82,29.82,10.0,South,11.5,20.7,N/A,,Overcast,190,2012-10-19 20:08:00
1:58 PM,56.8,50.9,80,29.82,10.0,SSW,9.2,-,N/A,,Overcast,200,2012-10-19 20:58:00
2:18 PM,57.2,50.0,77,29.81,10.0,SSW,10.4,-,N/A,,Overcast,200,2012-10-19 21:18:00
2:58 PM,56.5,50.0,79,29.81,10.0,SSW,10.4,-,N/A,,Overcast,200,2012-10-19 21:58:00
3:38 PM,55.4,50.0,82,29.80,10.0,WSW,12.7,19.6,N/A,,Overcast,240,2012-10-19 22:38:00
3:58 PM,53.6,48.4,82,29.81,8.0,SW,13.8,-,N/A,,Overcast,230,2012-10-19 22:58:00
4:08 PM,53.6,48.2,82,29.81,8.0,SW,8.1,-,N/A,,Overcast,220,2012-10-19 23:08:00
4:28 PM,53.6,46.4,77,29.79,10.0,SW,8.1,-,N/A,,Overcast,220,2012-10-19 23:28:00
4:58 PM,53.8,46.6,77,29.81,10.0,SW,10.4,-,N/A,,Mostly Cloudy,230,2012-10-19 23:58:00
5:58 PM,53.1,49.3,87,29.79,10.0,South,10.4,-,N/A,,Overcast,170,2012-10-20 00:58:00
6:58 PM,51.3,47.5,87,29.78,10.0,South,8.1,-,N/A,,Clear,180,2012-10-20 01:58:00
7:58 PM,50.2,47.3,90,29.78,10.0,South,5.8,-,N/A,,Mostly Cloudy,170,2012-10-20 02:58:00
8:13 PM,50.0,46.4,87,29.77,10.0,South,5.8,-,N/A,,Light Drizzle,180,2012-10-20 03:13:00
8:43 PM,50.0,46.4,87,29.78,7.0,SW,10.4,-,N/A,Rain,Light Rain,220,2012-10-20 03:43:00
8:58 PM,50.0,46.6,88,29.79,7.0,SW,9.2,-,0.06,Rain,Light Rain,220,2012-10-20 03:58:00
9:08 PM,50.0,46.4,87,29.78,8.0,SW,5.8,-,N/A,Rain,Light Rain,220,2012-10-20 04:08:00
9:35 PM,50.0,48.2,94,29.78,10.0,WSW,4.6,-,N/A,,Overcast,250,2012-10-20 04:35:00
9:58 PM,49.1,47.5,94,29.78,10.0,SSE,5.8,-,0.05,,Scattered Clouds,160,2012-10-20 04:58:00
10:58 PM,49.3,47.5,94,29.81,10.0,SSW,8.1,-,N/A,,Mostly Cloudy,200,2012-10-20 05:58:00
11:58 PM,47.8,45.1,90,29.83,10.0,South,9.2,-,N/A,,Clear,180,2012-10-20 06:58:00